Simultaneous Nadir Overpasses (SNOs) Predictions

Prediction of SNOs between GOES-15 and TERRA Satellite Orbit:

Table of predicted SNOs for the next 14.0 days since TLE Epoch: 8/29/2013
Index Date Time (GOES-15) GOES-15 Lat,Lon TERRA Lat,Lon Distance(km) Time Diff (sec)
1 08/29/2013 07:49:24 0.37,-135.35 -0.49,-139.44 464.80 80
2 08/30/2013 19:15:49 -0.33,-135.44 -1.21,-131.28 472.72 80
3 08/31/2013 07:37:14 0.36,-135.44 0.16,-136.49 118.36 80
4 09/02/2013 07:22:22 0.35,-135.53 0.76,-133.53 227.70 80
5 09/02/2013 19:43:37 -0.37,-135.57 0.31,-138.69 354.63 80
6 09/04/2013 19:31:26 -0.37,-135.66 -0.37,-135.74 9.10 80
7 09/06/2013 19:21:54 -0.37,-135.74 -0.99,-132.78 336.19 80
8 09/07/2013 07:43:18 0.38,-135.75 -0.11,-137.98 253.82 80
9 09/09/2013 07:28:26
